| time (UTC) | temp F | wind direction | speed MPH | gust MPH | rain 1hr in | rain 24hr in | rain mn in | humidity % | barometer mb |
| 20260901174546 | 83 | 275 | 0.0 | 4.0 | 0.00 | 0.00 | 0.00 | 34 | 1024.0 |
| 20260901173049 | 83 | 238 | 0.0 | 10.0 | 0.00 | 0.00 | 0.00 | 34 | 1024.0 |
| 20260901171532 | 82 | 330 | 0.0 | 3.0 | 0.00 | 0.00 | 0.00 | 34 | 1024.1 |
| 20260901170028 | 81 | 332 | 0.0 | 0.0 | 0.00 | 0.00 | 0.00 | 37 | 1024.1 |
| 20260901164539 | 80 | 301 | 0.0 | 1.0 | 0.00 | 0.00 | 0.00 | 40 | 1024.1 |
| 20260901163022 | 79 | 341 | 0.0 | 1.0 | 0.00 | 0.00 | 0.00 | 40 | 1023.9 |
| 20260901161542 | 79 | 23 | 0.0 | 0.0 | 0.00 | 0.00 | 0.00 | 41 | 1023.8 |
| 20260901154620 | 78 | 257 | 0.0 | 4.0 | 0.00 | 0.00 | 0.00 | 44 | 1023.9 |
| 20260901153037 | 77 | 27 | 0.0 | 3.0 | 0.00 | 0.00 | 0.00 | 45 | 1023.9 |
| 20260901151618 | 77 | 327 | 0.0 | 1.0 | 0.00 | 0.00 | 0.00 | 45 | 1023.8 |
| 20260901144510 | 74 | 12 | 0.0 | 0.0 | 0.00 | 0.00 | 0.00 | 52 | 1023.9 |
| 20260901143010 | 72 | 43 | 0.0 | 0.0 | 0.00 | 0.00 | 0.00 | 55 | 1024.0 |
| 20260901141513 | 70 | 28 | 0.0 | 1.0 | 0.00 | 0.00 | 0.00 | 61 | 1024.0 |
| 20260901140009 | 68 | 35 | 0.0 | 0.0 | 0.00 | 0.00 | 0.00 | 63 | 1024.1 |
| 20260901134507 | 67 | 58 | 0.0 | 1.0 | 0.00 | 0.00 | 0.00 | 64 | 1024.0 |
| 20260901133007 | 66 | 67 | 0.0 | 1.0 | 0.00 | 0.00 | 0.00 | 64 | 1023.8 |
| 20260901131507 | 64 | 68 | 0.0 | 0.0 | 0.00 | 0.00 | 0.00 | 65 | 1023.9 |
| 20260901130004 | 62 | 60 | 0.0 | 0.0 | 0.00 | 0.00 | 0.00 | 62 | 1023.7 |
| 20260901124501 | 61 | 46 | 0.0 | 0.0 | 0.00 | 0.00 | 0.00 | 61 | 1023.5 |
| 20260901123058 | 62 | 54 | 0.0 | 0.0 | 0.00 | 0.00 | 0.00 | 62 | 1023.3 |
| 20260901121556 | 62 | 53 | 0.0 | 0.0 | 0.00 | 0.00 | 0.00 | 64 | 1023.0 |
| 20260901120052 | 64 | 131 | 0.0 | 0.0 | 0.00 | 0.00 | 0.00 | 66 | 1023.0 |
| 20260901114627 | 64 | 97 | 0.0 | 0.0 | 0.00 | 0.00 | 0.00 | 65 | 1022.8 |
| 20260901113049 | 64 | 98 | 0.0 | 0.0 | 0.00 | 0.00 | 0.00 | 66 | 1022.9 |
| 20260901111550 | 64 | 98 | 0.0 | 0.0 | 0.00 | 0.00 | 0.00 | 66 | 1022.7 |
| 20260901110045 | 65 | 80 | 0.0 | 0.0 | 0.00 | 0.00 | 0.00 | 66 | 1022.5 |
| 20260901104543 | 66 | 318 | 0.0 | 0.0 | 0.00 | 0.00 | 0.00 | 65 | 1022.4 |
| 20260901103041 | 67 | 112 | 0.0 | 0.0 | 0.00 | 0.00 | 0.00 | 65 | 1022.5 |
| 20260901101540 | 67 | 112 | 0.0 | 0.0 | 0.00 | 0.00 | 0.00 | 64 | 1022.6 |
| 20260901100038 | 68 | 103 | 0.0 | 0.0 | 0.00 | 0.00 | 0.00 | 63 | 1022.5 |
| 20260901094541 | 68 | 86 | 0.0 | 0.0 | 0.00 | 0.00 | 0.00 | 64 | 1022.6 |
| 20260901093037 | 67 | 61 | 0.0 | 0.0 | 0.00 | 0.00 | 0.00 | 64 | 1022.6 |
| 20260901091534 | 67 | 66 | 0.0 | 0.0 | 0.00 | 0.00 | 0.00 | 65 | 1022.9 |
| 20260901090032 | 66 | 68 | 0.0 | 0.0 | 0.00 | 0.00 | 0.00 | 65 | 1023.1 |
| 20260901084532 | 66 | 54 | 0.0 | 0.0 | 0.00 | 0.00 | 0.00 | 65 | 1023.2 |
| 20260901083031 | 66 | 260 | 0.0 | 0.0 | 0.00 | 0.00 | 0.00 | 63 | 1023.2 |
| 20260901081527 | 67 | 260 | 0.0 | 0.0 | 0.00 | 0.00 | 0.00 | 64 | 1023.3 |
| 20260901080025 | 67 | 332 | 0.0 | 0.0 | 0.00 | 0.00 | 0.00 | 64 | 1023.4 |
| 20260901074521 | 68 | 233 | 0.0 | 0.0 | 0.00 | 0.00 | 0.00 | 65 | 1023.4 |
| 20260901073020 | 69 | 242 | 0.0 | 0.0 | 0.00 | 0.00 | 0.00 | 62 | 1023.4 |
| 20260901071517 | 70 | 193 | 0.0 | 10.0 | 0.00 | 0.00 | 0.00 | 58 | 1023.6 |
| 20260901070015 | 71 | 207 | 0.0 | 12.0 | 0.00 | 0.00 | 0.00 | 54 | 1023.4 |
| 20260901064518 | 70 | 191 | 1.0 | 9.0 | 0.00 | 0.00 | 0.00 | 57 | 1023.6 |
| 20260901063013 | 70 | 229 | 0.0 | 11.0 | 0.00 | 0.00 | 0.00 | 62 | 1023.5 |
| 20260901061507 | 72 | 174 | 4.0 | 17.0 | 0.00 | 0.00 | 0.00 | 55 | 1023.1 |
| 20260901060005 | 73 | 204 | 3.0 | 21.0 | 0.00 | 0.00 | 0.00 | 52 | 1022.7 |
| 20260901054502 | 74 | 189 | 15.0 | 24.0 | 0.00 | 0.00 | 0.00 | 49 | 1022.2 |
| 20260901053001 | 74 | 171 | 14.0 | 27.0 | 0.00 | 0.00 | 0.00 | 47 | 1022.2 |
| 20260901051501 | 74 | 226 | 7.0 | 16.0 | 0.00 | 0.00 | 0.00 | 49 | 1022.5 |
| 20260901050101 | 72 | 55 | 0.0 | 5.0 | 0.00 | 0.00 | 0.00 | 53 | 1022.4 |
| 20260901044604 | 73 | 5 | 0.0 | 5.0 | 0.00 | 0.00 | 0.00 | 46 | 1021.9 |
| 20260901043059 | 74 | 31 | 0.0 | 1.0 | 0.00 | 0.00 | 0.00 | 45 | 1021.3 |
| 20260901041604 | 74 | 177 | 0.0 | 0.0 | 0.00 | 0.00 | 0.00 | 50 | 1021.3 |
| 20260901040058 | 75 | 82 | 0.0 | 0.0 | 0.00 | 0.00 | 0.00 | 44 | 1021.3 |
| 20260901034558 | 73 | 39 | 0.0 | 9.0 | 0.00 | 0.00 | 0.00 | 54 | 1021.3 |
| 20260901033116 | 75 | 335 | 5.0 | 16.0 | 0.00 | 0.00 | 0.00 | 50 | 1021.3 |
| 20260901031557 | 76 | 328 | 7.0 | 17.0 | 0.00 | 0.00 | 0.00 | 46 | 1020.8 |
| 20260901030103 | 77 | 323 | 3.0 | 12.0 | 0.00 | 0.00 | 0.00 | 42 | 1020.4 |
| 20260901024555 | 78 | 10 | 4.0 | 15.0 | 0.00 | 0.00 | 0.00 | 38 | 1020.0 |
| 20260901023055 | 81 | 35 | 0.0 | 0.0 | 0.00 | 0.00 | 0.00 | 30 | 1019.3 |
| 20260901021602 | 83 | 139 | 0.0 | 1.0 | 0.00 | 0.00 | 0.00 | 27 | 1018.9 |
| 20260901020054 | 83 | 128 | 0.0 | 4.0 | 0.00 | 0.00 | 0.00 | 26 | 1018.6 |
| 20260901014553 | 84 | 157 | 0.0 | 6.0 | 0.00 | 0.00 | 0.00 | 25 | 1018.4 |
| 20260901013106 | 85 | 164 | 0.0 | 1.0 | 0.00 | 0.00 | 0.00 | 24 | 1018.2 |
| 20260901011610 | 87 | 156 | 0.0 | 8.0 | 0.00 | 0.00 | 0.00 | 22 | 1018.2 |
| 20260901010100 | 88 | 138 | 0.0 | 6.0 | 0.00 | 0.00 | 0.00 | 19 | 1018.1 |
| 20260901004549 | 88 | 128 | 0.0 | 7.0 | 0.00 | 0.07 | 0.00 | 19 | 1018.2 |
| 20260901003051 | 87 | 117 | 0.0 | 11.0 | 0.00 | 0.07 | 0.00 | 20 | 1018.3 |
| 20260901001549 | 89 | 131 | 8.0 | 16.0 | 0.00 | 0.07 | 0.00 | 19 | 1018.4 |
| 20260901000048 | 88 | 113 | 12.0 | 22.0 | 0.00 | 0.07 | 0.00 | 21 | 1018.3 |
| 20260831234556 | 87 | 128 | 13.0 | 22.0 | 0.00 | 0.07 | 0.00 | 23 | 1018.5 |
| 20260831233045 | 87 | 132 | 16.0 | 28.0 | 0.00 | 0.07 | 0.00 | 23 | 1018.7 |
| 20260831231544 | 90 | 125 | 11.0 | 24.0 | 0.00 | 0.07 | 0.00 | 23 | 1019.0 |
| 20260831230043 | 90 | 110 | 1.0 | 10.0 | 0.00 | 0.07 | 0.00 | 20 | 1018.7 |
| 20260831224545 | 91 | 137 | 9.0 | 16.0 | 0.00 | 0.07 | 0.00 | 20 | 1018.7 |
| 20260831223046 | 89 | 125 | 1.0 | 8.0 | 0.00 | 0.07 | 0.00 | 22 | 1018.9 |
| 20260831221556 | 88 | 188 | 0.0 | 0.0 | 0.00 | 0.07 | 0.00 | 21 | 1019.1 |
| 20260831220037 | 87 | 218 | 0.0 | 1.0 | 0.00 | 0.07 | 0.00 | 21 | 1019.4 |
| 20260831214539 | 85 | 223 | 1.0 | 11.0 | 0.00 | 0.07 | 0.00 | 26 | 1019.5 |
| 20260831213133 | 86 | 219 | 4.0 | 14.0 | 0.00 | 0.07 | 0.00 | 23 | 1019.6 |
| 20260831211552 | 86 | 264 | 4.0 | 19.0 | 0.00 | 0.07 | 0.00 | 20 | 1019.6 |
| 20260831204539 | 91 | 195 | 7.0 | 15.0 | 0.00 | 0.07 | 0.00 | 20 | 1019.5 |
| 20260831203130 | 92 | 215 | 3.0 | 8.0 | 0.00 | 0.07 | 0.00 | 19 | 1019.7 |
| 20260831201605 | 92 | 202 | 0.0 | 8.0 | 0.00 | 0.07 | 0.00 | 20 | 1020.0 |
| 20260831194604 | 93 | 247 | 0.0 | 1.0 | 0.00 | 0.07 | 0.00 | 21 | 1020.5 |
| 20260831193008 | 92 | 222 | 3.0 | 11.0 | 0.00 | 0.07 | 0.00 | 22 | 1020.7 |
| 20260831191601 | 89 | 253 | 0.0 | 9.0 | 0.00 | 0.07 | 0.00 | 25 | 1021.1 |
| 20260831184550 | 90 | 321 | 0.0 | 0.0 | 0.00 | 0.07 | 0.00 | 25 | 1021.4 |
| 20260831183007 | 89 | 181 | 0.0 | 0.0 | 0.00 | 0.07 | 0.00 | 26 | 1021.6 |
| 20260831181604 | 88 | 225 | 2.0 | 8.0 | 0.00 | 0.07 | 0.00 | 27 | 1021.9 |